Jackson, WY

7:07 AM MST on December 09, 2019 (GMT -0700)
Jackson Hole

Weather History for KJAC - October, 2019

Change the Weather History Date:

Thursday, October 17, 2019

  Actual Average Record
Temperature  
Mean Temperature 42 °F -  
Max Temperature 61 °F 56 °F 73 °F (1991)
Min Temperature 23 °F 20 °F 3 °F (1996)
Degree Days  
Heating Degree Days 24    
Moisture  
Dew Point 23 °F    
Average Humidity 57    
Maximum Humidity 86    
Minimum Humidity 23    
Precipitation  
Precipitation 0.00 in - - ()
Sea Level Pressure  
Sea Level Pressure 29.81 in    
Wind  
Wind Speed 7 mph ()    
Max Wind Speed 20 mph    
Max Gust Speed 29 mph    
Visibility 10.0 miles    
Events      
Averages and records for this station are not official NWS values.
T = Trace of Precipitation, MM = Missing Value Source: Averaged Metar Reports

Daily Weather History Graph

Daily Weather History Graph

Search for Another Location

Airport or City:

Astronomy

Oct. 17, 2019 Rise Set
Actual Time 7:39 AM MDT 6:36 PM MDT
Civil Twilight 7:10 AM MDT 7:05 PM MDT
Nautical Twilight 6:37 AM MDT 7:38 PM MDT
Astronomical Twilight 6:03 AM MDT 8:11 PM MDT
Moon 9:04 PM MDT (10/17) 11:20 AM MDT (10/17)
Length of Visible Light 11h 55m
Length of Day
10h 57m
Waning Gibbous, 86% of the Moon is Illuminated
Oct 17
Waning Gibbous
Oct 21
Last Quarter
Oct 27
New
Nov 4
First Quarter
Nov 12
Full

Hourly Weather History & Observations

Time (MDT) Temp. Windchill Dew Point Humidity Pressure Visibility Wind Dir Wind Speed Gust Speed Precip Events Conditions
12:56 AM 28.9 °F 25.2 °F 18.0 °F 64% 29.99 in 10.0 mi NNE 3.5 mph - N/A   Clear
1:56 AM 26.1 °F 18.4 °F 17.1 °F 69% 29.96 in 10.0 mi North 6.9 mph - N/A   Clear
2:56 AM 25.0 °F 15.5 °F 17.1 °F 72% 29.92 in 10.0 mi North 9.2 mph - N/A   Clear
3:56 AM 24.1 °F 15.2 °F 17.1 °F 75% 29.89 in 10.0 mi NNE 8.1 mph - N/A   Clear
4:56 AM 24.1 °F 15.2 °F 17.1 °F 75% 29.86 in 10.0 mi North 8.1 mph - N/A   Clear
5:56 AM 24.1 °F 15.2 °F 18.0 °F 77% 29.87 in 10.0 mi NNE 8.1 mph - N/A   Clear
6:56 AM 23.0 °F 17.0 °F 17.1 °F 78% 29.89 in 10.0 mi NE 4.6 mph - N/A   Clear
7:56 AM 24.1 °F 16.0 °F 18.0 °F 77% 29.88 in 10.0 mi NNE 6.9 mph - N/A   Clear
8:56 AM 30.0 °F 23.2 °F 19.9 °F 66% 29.83 in 10.0 mi NNE 6.9 mph - N/A   Clear
9:56 AM 37.9 °F - 19.0 °F 47% 29.82 in 10.0 mi Calm Calm - N/A   Clear
10:56 AM 44.1 °F 41.5 °F 19.0 °F 37% 29.78 in 10.0 mi South 4.6 mph - N/A   Clear
11:56 AM 52.0 °F - 19.9 °F 28% 29.72 in 10.0 mi WSW 5.8 mph - N/A   Scattered Clouds
12:56 PM 57.9 °F - 23.0 °F 26% 29.71 in 10.0 mi WSW 11.5 mph 17.3 mph N/A   Mostly Cloudy
1:56 PM 60.1 °F - 21.9 °F 23% 29.69 in 10.0 mi SSW 11.5 mph - N/A   Overcast
2:56 PM 59.0 °F - 23.0 °F 25% 29.67 in 10.0 mi SW 9.2 mph 17.3 mph N/A   Mostly Cloudy
3:56 PM 60.1 °F - 24.1 °F 25% 29.66 in 10.0 mi West 15.0 mph 19.6 mph N/A   Overcast
4:56 PM 55.9 °F - 25.0 °F 30% 29.69 in 10.0 mi West 17.3 mph 20.7 mph N/A   Overcast
5:56 PM 50.0 °F - 28.9 °F 44% 29.73 in 10.0 mi WNW 19.6 mph 28.8 mph N/A   Clear
6:56 PM 46.0 °F 43.9 °F 30.9 °F 56% 29.77 in 10.0 mi Variable 4.6 mph - N/A   Mostly Cloudy
7:56 PM 42.1 °F 34.9 °F 30.9 °F 65% 29.83 in 10.0 mi WNW 13.8 mph 28.8 mph 0.00 in   Overcast
8:56 PM 39.0 °F 31.8 °F 33.1 °F 79% 29.84 in 10.0 mi SSE 11.5 mph - 0.00 in   Overcast
9:56 PM 39.9 °F 32.9 °F 32.0 °F 73% 29.81 in 10.0 mi South 11.5 mph - N/A   Overcast
10:56 PM 39.0 °F 31.8 °F 30.9 °F 73% 29.77 in 10.0 mi SSW 11.5 mph - N/A   Overcast
11:56 PM 37.0 °F 31.6 °F 33.1 °F 86% 29.75 in 10.0 mi WSW 6.9 mph - N/A   Mostly Cloudy